Date,TemperatureHighF,TemperatureAvgF,TemperatureLowF,DewpointHighF,DewpointAvgF,DewpointLowF,HumidityHigh,HumidityAvg,HumidityLow,PressureMaxIn,PressureMinIn,WindSpeedMaxMPH,WindSpeedAvgMPH,GustSpeedMaxMPH,PrecipitationSumIn
2013-1-1,48.7,43.7,40.3,44.8,38.2,30.0,87,81,63,30.06,29.91,6,0,6,0.39
2013-1-2,51.8,46.4,41.7,43.4,40.0,32.8,88,79,64,30.13,29.89,4,0,5,0.06
2013-1-3,45.0,39.1,30.7,37.5,32.4,24.7,82,77,68,30.24,30.09,1,0,1,0.00
2013-1-4,49.1,35.8,27.1,27.0,22.0,17.4,80,59,33,30.29,30.17,8,0,14,0.00
2013-1-5,50.4,37.9,26.4,31.6,24.6,19.3,76,60,42,30.33,30.18,4,0,5,0.00
2013-1-6,54.0,42.7,34.7,38.6,33.0,25.9,81,69,52,30.18,30.00,7,0,7,0.02
2013-1-7,50.4,38.3,29.5,30.7,26.8,22.9,78,64,45,30.37,30.16,4,0,7,0.00
2013-1-8,50.5,37.7,26.1,35.9,29.1,20.5,81,72,55,30.41,30.30,2,0,4,0.00
2013-1-9,57.0,48.5,39.7,47.6,41.5,33.5,85,77,65,30.40,30.33,4,0,5,0.00
2013-1-10,64.6,52.5,45.3,51.1,44.2,39.1,88,74,55,30.48,30.34,6,0,6,0.00
2013-1-11,51.1,47.7,45.7,45.0,42.8,38.5,87,83,62,30.35,30.14,2,0,2,0.35
2013-1-12,67.1,55.5,48.6,60.0,51.3,45.0,90,86,78,30.15,30.07,1,0,1,0.02
2013-1-13,71.4,59.0,48.7,61.5,53.0,45.7,91,81,64,30.10,30.01,8,0,13,0.02
2013-1-14,63.3,61.4,56.1,60.0,57.8,52.9,90,88,84,30.12,30.03,8,0,8,0.89
2013-1-15,56.1,48.5,43.0,52.9,45.0,39.4,89,88,86,30.17,30.04,3,0,3,1.10
2013-1-16,49.8,46.4,43.0,46.7,42.8,39.4,89,87,86,30.05,29.94,3,0,3,0.54
2013-1-17,50.7,44.6,34.3,47.9,41.5,30.9,90,88,87,30.16,29.84,6,0,28,2.03
2013-1-18,47.1,36.2,30.0,33.5,29.2,25.6,88,77,52,30.45,30.16,2,0,3,0.19
2013-1-19,53.2,37.5,25.9,34.6,27.8,21.4,85,70,44,30.43,30.12,3,0,6,0.04
2013-1-20,59.9,44.9,30.6,37.1,29.7,25.1,81,57,36,30.11,30.00,16,1,19,0.00
2013-1-21,56.7,41.7,29.8,33.6,25.5,15.8,80,55,36,30.05,29.90,10,1,25,0.00
2013-1-22,37.2,31.9,26.6,15.6,7.2,3.0,44,35,24,30.19,29.98,15,3,27,0.04
2013-1-23,45.3,35.1,28.0,22.1,15.6,6.3,68,45,36,30.27,29.99,8,0,15,0.02
2013-1-24,44.4,37.9,25.3,29.1,16.4,6.8,67,42,28,30.43,29.91,19,2,23,0.00
2013-1-25,28.9,25.7,21.4,20.5,14.4,7.3,77,62,46,30.44,30.05,2,0,3,0.00
2013-1-26,44.2,32.8,24.1,32.4,25.5,18.3,82,75,57,30.31,30.04,0,0,0,0.06
2013-1-27,42.6,34.4,26.2,29.0,25.1,20.6,81,69,55,30.50,30.31,4,0,4,0.02
2013-1-28,56.8,43.4,34.3,43.5,35.0,28.8,82,73,58,30.40,30.19,5,0,6,0.00
2013-1-29,70.7,52.4,36.9,55.2,44.7,32.2,87,76,57,30.20,29.99,8,0,12,0.00
2013-1-30,65.8,61.2,50.9,59.7,56.7,45.6,88,85,80,29.99,29.43,18,2,18,1.38
2013-1-31,50.7,39.6,30.0,45.4,25.3,20.0,82,57,41,29.98,29.47,21,4,32,0.22
2013-2-1,38.7,32.1,24.1,27.8,14.0,6.2,73,48,33,30.30,29.84,34,3,34,0.19
2013-2-2,44.4,33.0,21.7,30.4,18.4,12.4,75,56,35,30.31,29.98,5,0,8,0.19
2013-2-3,47.5,39.8,33.6,30.4,25.8,18.8,78,58,44,29.99,29.84,16,2,26,0.00
2013-2-4,52.9,38.5,27.7,29.3,23.0,17.6,69,54,38,30.08,29.94,6,0,6,0.00
2013-2-5,59.2,43.4,31.1,38.1,29.3,23.6,76,59,39,29.96,29.87,8,0,12,0.00
2013-2-6,60.1,46.1,34.3,33.6,28.6,25.3,74,53,28,30.21,29.96,7,0,12,0.00
2013-2-7,44.8,39.5,35.8,35.0,30.7,25.4,84,71,59,30.26,30.01,5,0,5,0.65
2013-2-8,56.8,45.2,38.3,46.0,35.2,24.7,86,69,44,30.08,29.86,14,2,21,0.02
2013-2-9,56.8,41.6,30.7,26.5,23.9,21.4,69,51,28,30.29,30.06,6,0,15,0.00
2013-2-10,55.2,42.9,33.1,36.5,28.9,23.3,80,60,34,30.38,30.14,6,0,9,0.19
2013-2-11,57.7,48.9,42.1,53.0,42.1,29.8,87,78,44,30.14,29.93,7,0,8,0.06
2013-2-12,58.8,48.8,37.8,36.7,30.5,25.6,74,50,32,30.08,29.90,9,0,12,0.02
2013-2-13,46.6,42.7,34.2,41.7,37.3,28.6,84,81,73,29.93,29.64,7,0,7,0.28
2013-2-14,54.1,39.7,30.0,35.4,29.7,25.2,82,69,47,30.03,29.85,7,0,14,0.02
2013-2-15,60.1,43.2,28.6,36.9,30.5,23.5,84,63,37,30.06,29.89,7,1,8,0.00
2013-2-16,41.5,36.3,28.2,29.4,23.7,14.1,74,60,48,29.97,29.81,10,1,18,0.02
2013-2-17,39.0,31.4,24.1,15.8,10.6,7.1,59,42,32,30.19,29.96,23,3,27,0.13
2013-2-18,53.4,37.2,22.5,28.3,20.4,11.4,71,52,36,30.31,30.14,5,0,9,0.13
2013-2-19,54.7,43.6,36.7,42.0,28.8,15.9,80,57,33,30.15,29.83,16,1,21,0.06
2013-2-20,54.5,41.5,31.8,17.7,12.6,8.1,42,32,19,30.09,29.98,13,2,16,0.02
2013-2-21,59.5,41.3,24.6,31.1,20.1,11.4,68,45,26,30.22,30.04,5,0,6,0.11
2013-2-22,41.7,38.1,35.8,34.9,32.2,29.3,83,79,68,30.25,30.08,2,0,2,0.45
2013-2-23,50.2,42.0,36.3,41.5,36.4,31.8,85,80,71,30.10,29.81,4,0,4,0.22
2013-2-24,61.2,47.2,35.8,39.0,30.8,23.7,87,57,28,30.01,29.82,14,1,16,0.04
2013-2-25,46.2,39.1,32.7,29.1,26.3,23.3,75,60,49,30.16,29.98,4,0,14,0.00
2013-2-26,38.5,35.4,32.7,34.1,29.8,22.8,85,80,56,30.06,29.58,6,0,6,1.99
2013-2-27,57.9,44.7,34.0,39.6,34.6,29.7,87,69,49,29.77,29.62,13,1,16,0.02
2013-2-28,46.6,40.7,35.2,29.8,25.8,23.1,66,55,45,29.87,29.70,18,2,22,0.00
2013-3-1,48.0,38.9,30.0,29.5,26.4,22.6,75,61,46,29.90,29.83,9,1,13,0.00
2013-3-2,46.8,38.6,31.3,32.3,26.3,17.8,76,62,44,29.91,29.80,15,2,15,0.00
2013-3-3,43.2,32.8,25.5,21.1,16.7,14.0,66,52,39,29.97,29.87,14,2,18,0.00
2013-3-4,54.3,39.3,24.6,22.8,18.0,13.0,63,44,26,30.08,29.95,7,0,7,0.00
2013-3-5,43.5,39.7,36.0,37.2,31.6,22.5,86,73,49,30.02,29.61,5,0,5,0.78
2013-3-6,46.6,37.0,29.8,34.4,23.9,20.3,85,59,44,30.08,29.62,27,4,32,0.13
2013-3-7,53.4,37.2,26.4,31.3,24.4,20.2,79,61,41,30.23,30.08,8,1,14,0.09
2013-3-8,54.7,38.3,24.1,27.8,23.0,17.6,78,56,33,30.28,30.18,12,1,14,0.00
2013-3-9,62.4,44.3,26.8,35.4,28.2,19.9,77,55,34,30.32,30.19,6,0,8,0.00
2013-3-10,66.0,51.1,35.4,40.0,33.9,27.3,75,54,35,30.26,30.13,9,1,9,0.00
2013-3-11,62.4,51.8,48.2,47.1,40.8,33.2,85,67,52,30.16,29.85,8,1,10,0.58
2013-3-12,63.7,52.9,39.6,49.4,41.2,28.8,89,67,38,29.98,29.74,10,1,13,0.69
2013-3-13,51.6,41.6,32.2,30.8,24.7,16.9,72,52,37,30.13,29.97,28,3,29,0.02
2013-3-14,52.9,38.7,28.9,23.1,17.6,14.1,61,44,28,30.24,30.12,18,2,18,0.02
2013-3-15,66.9,48.9,34.0,39.7,29.9,18.0,64,49,36,30.16,29.87,6,1,10,0.00
2013-3-16,80.4,64.0,46.9,50.5,43.7,36.7,70,50,31,29.87,29.69,14,2,20,0.00
2013-3-17,74.5,58.1,43.5,52.2,44.8,35.6,74,62,44,30.10,29.84,12,2,12,0.00
2013-3-18,43.5,40.2,38.5,36.5,34.8,33.2,85,81,74,30.12,29.84,6,0,6,0.45
2013-3-19,60.4,48.2,38.8,39.1,29.9,16.3,88,55,26,30.04,29.81,19,2,24,0.04
2013-3-20,57.7,45.2,36.0,25.0,19.6,14.0,52,37,24,30.08,29.79,17,1,17,0.00
2013-3-21,42.1,35.3,28.0,26.7,13.9,8.4,58,41,32,29.94,29.78,17,3,25,0.00
2013-3-22,53.8,37.6,21.9,25.4,18.5,12.0,69,48,28,30.03,29.92,5,0,8,0.00
2013-3-23,59.7,46.5,35.2,37.6,31.5,23.3,73,57,40,30.02,29.86,5,0,7,0.00
2013-3-24,46.2,42.4,38.3,38.7,36.6,33.5,84,80,69,29.91,29.54,5,0,6,0.63
2013-3-25,45.1,38.7,34.0,33.7,27.0,22.4,84,64,44,29.85,29.53,25,2,26,0.06
2013-3-26,46.8,37.2,28.9,25.6,23.2,20.6,72,58,42,30.15,29.85,13,2,20,0.02
2013-3-27,50.5,39.1,30.6,27.7,22.9,0.0,71,53,39,30.22,30.13,15,2,17,0.00
2013-3-28,55.2,40.5,27.0,29.7,23.2,18.8,73,52,33,30.26,30.16,11,1,14,0.00
2013-3-29,63.1,44.6,27.7,33.9,27.4,20.2,76,54,28,30.30,30.16,14,1,17,0.00
2013-3-30,65.8,53.3,42.4,40.9,37.0,32.6,73,55,38,30.19,30.02,7,1,11,0.00
2013-3-31,69.6,55.5,48.0,53.9,46.7,37.7,85,73,55,30.03,29.79,6,0,7,0.32
2013-4-1,69.1,56.2,43.9,49.6,41.2,32.9,85,59,36,29.95,29.83,14,2,22,0.06
2013-4-2,61.5,51.1,37.4,33.1,28.1,22.4,72,43,27,30.13,29.95,13,1,14,0.00
2013-4-3,62.8,50.4,36.7,31.4,25.6,20.3,54,39,26,30.25,30.10,7,1,11,0.00
2013-4-4,46.6,40.0,35.2,33.1,28.4,20.0,83,65,39,30.26,29.96,4,0,5,1.10
2013-4-5,64.6,49.3,37.6,45.8,37.6,32.9,86,67,37,30.05,29.89,11,1,14,0.02
2013-4-6,68.7,52.5,34.7,41.2,35.6,29.2,83,56,33,30.20,30.04,6,1,8,0.00
2013-4-7,73.8,59.4,46.0,48.5,41.1,33.8,64,51,39,30.20,30.07,9,1,10,0.00
2013-4-8,79.0,62.5,45.5,55.6,47.2,38.7,79,59,42,30.14,30.02,10,1,13,0.00
2013-4-9,84.6,68.2,50.2,59.0,51.5,43.3,80,57,40,30.18,30.06,8,1,10,0.00
2013-4-10,85.8,71.2,55.2,61.8,54.5,47.8,78,57,39,30.09,29.94,7,1,11,0.00
2013-4-11,82.0,71.3,61.3,61.1,56.5,51.8,81,61,44,29.96,29.73,9,2,14,0.02
2013-4-12,81.3,68.5,56.1,62.1,53.0,36.9,85,61,33,29.84,29.63,10,2,16,0.76
2013-4-13,75.4,60.6,45.5,45.8,38.5,33.3,73,47,24,30.03,29.82,16,2,18,0.02
2013-4-14,77.5,60.4,43.3,48.4,42.6,35.6,76,54,33,30.09,29.96,8,1,11,0.00
2013-4-15,60.6,57.2,54.5,54.2,51.2,47.7,85,80,66,30.20,29.99,5,0,5,0.35
2013-4-16,80.8,65.8,56.3,61.9,55.7,51.7,87,72,50,30.27,30.16,4,0,8,0.02
2013-4-17,74.1,65.1,57.7,62.3,56.9,52.3,83,75,59,30.23,30.10,7,0,9,0.06
2013-4-18,79.5,67.0,56.7,61.2,57.2,52.2,87,72,49,30.14,29.96,5,0,9,0.02
2013-4-19,66.4,63.6,51.1,62.5,57.4,38.1,88,81,59,29.96,29.70,10,1,10,0.63
2013-4-20,66.0,52.7,41.0,39.6,33.8,27.2,75,50,34,30.25,29.91,13,1,17,0.02
2013-4-21,64.2,51.5,37.4,41.2,36.7,30.9,79,59,39,30.42,30.24,6,0,6,0.02
2013-4-22,65.1,52.4,41.0,41.0,36.7,33.2,78,57,36,30.41,30.20,5,0,8,0.00
2013-4-23,73.2,55.9,39.0,50.8,41.6,31.1,77,60,41,30.26,30.07,5,0,6,0.00
2013-4-24,75.6,62.5,49.3,57.1,50.6,42.9,81,66,50,30.11,29.97,9,1,13,0.00
2013-4-25,73.2,59.4,45.7,53.4,38.6,27.8,76,49,23,30.28,30.04,5,0,8,0.00
2013-4-26,71.6,57.0,39.9,44.4,38.3,32.0,74,51,32,30.41,30.28,71,0,71,0.00
2013-4-27,64.0,55.7,52.3,52.5,48.5,44.4,84,77,63,30.35,30.23,2,0,2,0.15
2013-4-28,54.7,53.2,51.6,50.9,49.3,47.6,88,87,84,30.24,30.03,0,0,2,1.97
2013-4-29,74.5,60.8,53.2,62.6,54.5,49.8,89,81,59,30.06,29.93,4,0,4,0.06
2013-4-30,75.7,63.2,57.6,61.4,55.9,52.0,87,78,58,30.18,29.98,2,0,5,0.00
2013-5-1,66.6,60.0,55.6,55.3,52.6,50.8,85,77,65,30.28,30.17,2,0,9,0.00
2013-5-2,60.4,56.5,52.9,54.9,51.7,48.8,87,84,79,30.30,30.22,1,0,2,0.28
2013-5-3,64.6,57.8,53.8,52.9,50.4,48.3,87,77,62,30.24,30.11,3,0,4,0.02
2013-5-4,60.6,53.4,48.9,48.8,44.4,40.3,80,71,64,30.13,29.99,2,0,2,0.00
2013-5-5,54.5,49.4,-22.0,51.6,45.5,-24.6,90,87,80,30.06,29.83,5,0,5,3.22
2013-5-6,69.6,58.5,50.7,59.8,51.9,44.5,91,80,49,29.90,29.80,0,0,6,1.69
2013-5-7,69.6,55.7,47.1,55.0,48.4,42.5,86,77,55,29.94,29.85,0,0,0,0.06
2013-5-8,70.5,59.3,50.5,58.5,52.2,46.8,88,78,60,30.01,29.91,6,0,6,0.09
2013-5-9,80.4,65.1,50.5,59.7,53.3,45.9,87,68,41,30.08,30.00,2,0,6,0.00
2013-5-10,81.7,67.1,54.0,63.8,55.9,48.9,85,69,48,30.08,29.95,6,0,12,0.00
2013-5-11,77.2,67.4,61.0,62.7,57.7,54.1,87,72,56,29.96,29.80,5,0,5,0.17
2013-5-12,68.9,59.9,50.7,57.8,44.1,34.2,88,59,33,30.04,29.86,11,1,17,0.17
2013-5-13,67.6,55.4,44.4,40.9,34.1,31.1,69,46,27,30.17,30.04,9,1,15,0.00
2013-5-14,75.0,58.0,40.3,50.4,41.3,32.7,76,56,36,30.23,30.05,5,0,9,0.00
2013-5-15,89.4,71.6,52.9,64.5,54.9,45.9,78,58,36,30.06,29.93,6,0,12,0.00
2013-5-16,83.3,71.6,63.5,62.5,55.8,49.0,76,58,39,30.03,29.95,7,0,16,0.00
2013-5-17,82.9,69.8,57.4,65.9,58.1,51.9,83,68,51,30.09,30.01,2,0,5,0.00
2013-5-18,70.5,65.6,61.0,65.5,60.2,55.5,89,83,70,30.15,30.06,5,0,5,0.65
2013-5-19,77.2,68.4,63.7,70.9,63.9,60.4,90,85,74,30.11,30.02,1,0,1,0.26
2013-5-20,82.2,70.4,63.7,70.4,64.3,60.4,90,82,61,30.14,30.01,8,0,8,0.26
2013-5-21,85.8,72.6,61.2,71.7,64.6,57.6,89,77,55,30.06,29.93,4,0,5,0.04
2013-5-22,83.3,68.4,62.1,70.9,62.2,58.2,89,81,52,30.01,29.92,0,0,0,2.40
2013-5-23,80.2,68.4,61.2,69.5,62.0,56.0,90,81,59,29.99,29.83,5,0,5,0.30
2013-5-24,70.2,63.0,53.8,57.0,46.3,37.0,80,57,34,30.20,29.89,17,2,23,0.00
2013-5-25,78.4,60.9,45.5,47.8,42.1,38.0,76,53,31,30.28,30.15,7,0,8,0.00
2013-5-26,77.5,64.2,55.4,57.3,49.5,44.6,72,60,40,30.28,30.15,7,0,8,0.00
2013-5-27,81.7,66.8,52.7,62.3,54.8,47.4,84,67,48,30.26,30.12,3,0,6,0.00
2013-5-28,84.0,71.1,58.8,68.0,60.0,53.3,84,69,52,30.21,30.14,0,0,0,0.00
2013-5-29,85.8,72.8,61.0,69.3,61.1,55.1,83,68,50,30.23,30.15,5,0,7,0.00
2013-5-30,84.7,71.5,60.1,68.3,61.0,55.2,86,71,51,30.27,30.17,3,0,4,0.00
2013-5-31,84.2,72.0,61.2,68.1,61.5,56.5,87,71,52,30.22,30.11,4,0,7,0.00
2013-6-1,87.1,75.1,67.3,68.7,63.3,60.5,82,68,49,30.12,30.02,3,0,8,0.00
2013-6-2,76.6,70.4,66.0,68.1,63.4,60.7,89,79,72,30.05,29.92,7,0,7,1.79
2013-6-3,84.7,72.8,66.0,69.9,64.4,60.6,90,77,45,29.98,29.84,8,0,8,0.02
2013-6-4,81.7,70.8,64.8,67.1,62.7,59.8,87,76,59,30.10,29.97,3,0,8,0.19
2013-6-5,74.8,67.9,64.4,66.6,62.6,59.5,87,83,75,30.12,30.00,1,0,1,1.69
2013-6-6,78.4,69.8,64.9,70.8,65.3,61.9,90,86,72,30.01,29.78,2,0,2,1.71
2013-6-7,81.5,70.6,65.5,70.0,65.4,61.2,90,84,64,29.87,29.69,4,0,4,0.45
2013-6-8,82.2,71.0,63.1,71.0,64.5,59.8,90,81,57,30.09,29.84,4,0,28,0.11
2013-6-9,81.5,70.3,64.9,70.7,65.0,61.0,90,84,68,30.15,30.05,5,0,5,2.96
2013-6-10,79.9,70.8,66.6,71.6,65.8,62.1,91,85,65,30.09,29.89,4,0,5,1.21
2013-6-11,89.2,73.6,64.2,67.7,63.0,60.0,90,71,47,30.01,29.93,6,0,14,0.06
2013-6-12,89.4,74.9,63.5,76.2,66.8,58.8,86,77,59,30.03,29.91,4,0,6,0.00
2013-6-13,92.5,77.1,67.8,72.2,66.3,62.5,86,71,46,29.92,29.71,17,0,17,0.67
2013-6-14,85.8,70.9,59.2,63.0,55.6,53.4,82,60,39,30.05,29.82,14,1,18,0.02
2013-6-15,90.0,70.6,56.8,67.3,58.2,51.1,84,66,46,30.15,30.05,3,0,7,0.00
2013-6-16,87.3,74.6,61.9,69.3,62.7,56.7,83,67,50,30.14,30.03,4,0,7,19.04
2013-6-17,83.3,72.8,67.6,71.2,66.2,62.3,88,80,62,30.05,29.96,8,0,8,0.56
2013-6-18,83.8,71.3,67.3,73.0,66.8,63.3,90,86,70,29.97,29.82,1,0,2,0.43
2013-6-19,82.6,71.2,62.1,69.1,63.6,58.5,89,78,60,30.13,29.93,0,0,1,0.02
2013-6-20,85.8,71.9,63.3,68.8,63.7,59.1,88,76,57,30.24,30.13,2,0,4,0.00
2013-6-21,89.4,72.6,63.3,68.8,62.6,58.6,88,72,50,30.28,30.18,2,0,4,0.00
2013-6-22,92.1,71.9,60.6,69.6,61.4,55.8,86,71,47,30.25,30.13,4,0,5,0.00
2013-6-23,86.7,72.5,64.2,71.9,64.6,59.8,87,77,58,30.22,30.13,4,0,6,0.00
2013-6-24,84.9,72.9,66.4,71.8,66.4,62.4,88,81,60,30.22,30.11,4,0,8,0.15
2013-6-25,88.5,75.0,66.4,74.4,67.3,62.7,90,78,58,30.15,30.02,3,0,4,0.02
2013-6-26,90.0,74.5,66.7,73.4,66.6,63.1,89,77,51,30.05,29.93,6,0,6,0.02
2013-6-27,88.3,75.6,67.1,73.9,66.8,63.4,89,75,57,29.96,29.76,7,0,13,0.00
2013-6-28,90.7,77.7,70.3,70.9,66.3,63.7,80,69,47,29.80,29.64,7,0,14,0.00
2013-6-29,88.0,75.6,65.5,69.2,64.3,60.2,84,69,44,29.73,29.65,4,0,6,0.00
2013-6-30,84.7,73.1,67.6,71.6,66.1,62.8,87,79,60,29.86,29.72,2,0,3,0.61
2013-7-1,79.9,71.9,66.9,71.2,66.6,63.3,89,84,72,29.98,29.84,1,0,4,0.61
2013-7-2,77.5,70.5,66.6,72.2,66.6,63.2,91,88,81,30.15,29.97,1,0,2,1.79
2013-7-3,80.2,71.2,67.8,74.3,67.5,64.5,91,88,80,30.22,30.12,1,0,1,0.58
2013-7-4,83.3,72.0,66.7,74.6,67.7,63.6,91,87,71,30.24,30.14,1,0,5,1.64
2013-7-5,82.4,73.5,67.8,74.8,68.5,64.1,91,85,74,30.25,30.19,0,0,1,2.03
2013-7-6,84.9,74.7,67.8,73.1,68.5,64.1,91,82,64,30.23,30.12,1,0,5,0.39
2013-7-7,85.3,75.3,70.2,74.7,69.6,66.3,91,83,66,30.18,30.09,1,0,1,0.11
2013-7-8,87.6,76.2,69.6,74.3,68.9,65.9,90,79,54,30.21,30.11,0,0,0,0.02
2013-7-9,88.5,76.7,68.2,74.5,69.1,64.8,90,78,58,30.17,30.07,0,0,3,0.13
2013-7-10,85.1,75.0,69.1,76.6,69.6,65.7,90,84,69,30.14,29.98,0,0,0,0.04
2013-7-11,81.7,74.1,68.9,72.6,68.8,65.4,90,84,71,29.98,29.89,0,0,1,0.00
2013-7-12,82.8,73.2,66.9,71.7,67.0,61.4,89,81,66,30.05,29.90,0,0,0,0.00
2013-7-13,77.4,70.7,66.6,69.1,65.7,62.6,89,85,74,30.14,30.04,0,0,0,0.19
2013-7-14,83.1,74.5,69.6,74.4,69.2,66.6,91,84,68,30.30,30.11,0,0,5,0.67
2013-7-15,86.7,75.6,67.8,72.7,68.0,64.5,90,78,56,30.34,30.26,0,0,5,0.02
2013-7-16,89.6,76.7,67.1,73.6,67.6,63.4,90,75,53,30.33,30.23,1,0,5,0.00
2013-7-17,90.3,74.9,69.1,77.1,68.1,64.4,88,80,59,30.27,30.16,2,0,2,0.97
2013-7-18,88.3,76.1,67.1,76.2,69.1,63.6,90,80,60,30.21,30.08,0,0,4,0.97
2013-7-19,90.1,77.7,68.7,75.9,70.0,65.0,90,78,56,30.13,30.01,0,0,4,0.00
2013-7-20,81.7,73.4,68.9,74.6,68.8,65.5,89,86,78,30.06,29.96,1,0,1,0.11
2013-7-21,83.7,72.0,66.6,75.1,67.7,63.2,90,87,69,30.03,29.95,4,0,4,0.45
2013-7-22,84.6,74.6,67.6,75.0,68.9,64.6,91,83,66,30.01,29.86,2,0,7,0.22
2013-7-23,87.6,76.0,68.4,71.5,66.6,64.6,89,74,50,29.90,29.80,6,0,10,0.02
2013-7-24,89.4,75.4,67.1,73.8,67.4,63.0,88,77,53,29.89,29.79,11,0,11,0.11
2013-7-25,84.4,72.9,66.4,71.9,66.2,62.7,89,80,60,30.05,29.87,1,0,3,0.39
2013-7-26,84.7,73.8,67.6,73.7,67.2,63.6,89,81,63,30.11,30.02,1,0,28,0.11
2013-7-27,77.5,71.3,67.8,71.9,66.7,64.5,91,86,78,30.04,29.93,0,0,2,2.31
2013-7-28,84.9,73.9,68.0,71.8,67.3,64.1,90,80,61,30.03,29.93,3,0,7,0.02
2013-7-29,84.2,72.0,61.7,69.1,63.8,57.7,88,76,52,30.19,30.02,2,0,14,0.00
2013-7-30,81.0,71.3,63.5,68.8,63.0,57.9,84,75,60,30.25,30.15,1,0,4,0.00
2013-7-31,72.3,69.5,68.2,67.6,65.6,64.3,90,87,83,30.18,30.00,4,0,4,0.35
2013-8-1,84.0,73.5,67.8,73.5,68.3,64.8,91,84,66,30.01,29.90,1,0,2,0.69
2013-8-2,84.4,73.4,65.7,71.8,66.5,61.7,89,80,63,30.05,29.95,3,0,4,0.15
2013-8-3,86.2,75.3,67.8,71.8,67.3,64.0,90,77,55,30.05,29.97,4,0,14,0.00
2013-8-4,86.5,74.9,66.6,68.8,64.9,59.1,87,72,50,30.06,29.96,6,0,28,0.00
2013-8-5,82.9,72.2,64.9,71.0,64.2,59.3,85,76,62,30.09,29.99,2,0,28,0.02
2013-8-6,81.7,72.9,67.8,71.4,66.8,63.8,88,82,69,30.07,29.98,4,0,6,0.02
2013-8-7,77.7,72.4,68.7,71.4,67.7,64.7,89,85,79,30.09,30.03,3,0,3,0.02
2013-8-8,83.5,74.9,69.1,73.3,69.4,65.7,91,83,67,30.08,30.01,3,0,3,0.02
2013-8-9,88.9,76.3,69.6,75.1,69.8,66.2,90,81,61,30.09,30.02,6,0,7,0.00
2013-8-10,90.5,74.7,69.6,74.7,68.6,66.2,90,82,55,30.14,30.06,3,0,8,0.11
2013-8-11,88.9,75.9,68.2,75.1,69.0,64.8,90,80,57,30.14,30.06,5,0,8,0.11
2013-8-12,90.1,76.5,69.1,75.0,69.2,65.1,89,79,59,30.09,29.99,5,0,8,0.00
2013-8-13,87.1,75.2,70.0,73.3,68.6,65.3,90,81,59,29.99,29.83,4,0,10,0.11
2013-8-14,81.0,70.9,64.9,66.5,63.2,59.2,86,77,59,30.10,29.91,0,0,4,0.06
2013-8-15,72.3,64.5,58.6,60.4,57.2,53.3,83,77,63,30.18,30.09,4,0,4,0.00
2013-8-16,75.4,65.0,58.5,61.6,57.5,54.0,87,77,59,30.19,30.10,2,0,28,0.00
2013-8-17,66.6,63.1,60.1,60.2,58.1,55.2,88,84,78,30.21,30.14,1,0,1,0.37
2013-8-18,76.6,67.9,63.1,69.0,63.6,59.7,90,86,75,30.23,30.14,0,0,0,0.19
2013-8-19,75.6,69.5,66.4,68.6,65.2,63.2,90,86,77,30.20,30.10,1,0,1,0.43
2013-8-20,78.6,70.6,64.0,70.7,65.7,60.7,90,85,75,30.21,30.12,3,0,4,0.02
2013-8-21,79.5,71.7,66.7,71.4,67.1,63.1,90,86,72,30.24,30.12,3,0,5,0.11
2013-8-22,86.5,75.5,67.8,73.0,68.2,64.8,90,79,58,30.17,30.03,3,0,5,0.11
2013-8-23,85.3,73.1,66.4,72.3,66.4,62.4,90,80,56,30.11,30.00,12,0,12,0.00
2013-8-24,81.1,70.1,61.3,64.9,60.4,54.4,87,73,51,30.32,30.11,5,0,71,0.00
2013-8-25,80.4,67.2,58.5,65.3,58.7,53.7,86,75,55,30.39,30.29,4,0,4,0.00
2013-8-26,83.8,69.6,58.3,68.1,60.9,53.8,87,75,54,30.33,30.13,3,0,8,0.00
2013-8-27,88.3,73.6,63.3,71.2,64.6,58.4,86,75,53,30.15,30.02,5,0,8,0.00
2013-8-28,86.7,76.1,67.6,72.9,67.8,63.2,86,76,59,30.05,29.94,4,0,6,0.00
2013-8-29,90.1,79.0,72.3,73.0,68.7,65.7,87,71,52,30.03,29.91,7,0,14,0.84
2013-8-30,83.8,74.9,70.3,72.2,68.7,66.6,89,81,65,30.08,29.96,4,0,4,0.02
2013-8-31,86.4,73.6,67.6,74.5,67.8,64.0,90,83,62,29.98,29.90,5,0,6,0.17
2013-9-1,87.6,72.3,67.6,75.3,67.0,63.0,90,84,61,29.94,29.81,8,0,9,0.41
2013-9-2,86.4,74.2,66.0,73.5,67.9,63.0,91,81,60,29.93,29.83,3,0,14,0.02
2013-9-3,85.6,74.4,67.6,70.1,65.5,62.6,89,75,54,30.00,29.83,7,0,7,0.00
2013-9-4,83.1,71.5,62.4,69.7,63.6,57.9,87,77,60,30.12,30.00,4,0,5,0.00
2013-9-5,83.1,71.5,63.5,67.6,63.0,59.4,88,76,49,30.14,30.07,2,0,14,0.00
2013-9-6,81.7,69.5,60.4,65.5,60.9,55.9,87,75,57,30.22,30.09,3,0,6,0.00
2013-9-7,82.6,69.8,59.5,67.2,61.4,55.0,87,76,55,30.15,30.00,4,0,71,0.00
2013-9-8,84.6,71.3,61.3,69.6,63.5,57.1,88,77,54,30.02,29.96,3,0,5,0.00
2013-9-9,83.8,72.6,65.5,71.7,65.6,61.5,88,79,62,30.17,30.02,0,0,4,0.00
2013-9-10,85.5,73.0,64.8,72.3,65.6,61.1,89,78,61,30.25,30.16,5,0,5,0.00
2013-9-11,86.9,73.4,65.3,73.4,66.4,61.3,89,79,60,30.23,30.10,1,0,2,0.00
2013-9-12,87.1,73.4,66.6,71.7,66.2,62.9,89,79,57,30.11,29.88,5,0,5,0.00
2013-9-13,81.5,70.8,60.4,63.5,58.2,51.0,83,66,43,29.94,29.83,10,0,13,0.00
2013-9-14,75.7,63.0,54.3,59.0,52.4,47.3,81,69,50,30.13,29.95,6,0,7,0.00
2013-9-15,76.5,63.9,54.0,63.7,56.3,49.2,86,77,61,30.23,30.12,2,0,4,0.00
2013-9-16,83.3,68.6,58.6,65.3,59.5,54.3,89,74,49,30.19,30.07,7,0,9,0.00
2013-9-17,71.2,65.1,59.5,59.3,55.6,53.5,82,72,57,30.32,30.19,4,0,5,0.00
2013-9-18,68.9,62.7,57.6,57.8,54.7,50.8,82,75,64,30.30,30.17,4,0,4,0.00
2013-9-19,80.4,67.7,61.0,66.5,60.3,56.1,85,78,62,30.20,30.09,3,0,4,0.00
2013-9-20,84.7,70.6,61.5,68.8,63.1,57.6,88,78,56,30.10,29.93,2,0,5,0.00
2013-9-21,70.5,66.9,62.8,65.8,62.7,59.5,90,87,81,29.96,29.74,6,0,8,1.15
2013-9-22,75.7,63.8,55.8,60.8,56.4,52.3,89,78,53,29.94,29.76,3,0,5,0.09
2013-9-23,73.2,61.7,54.3,60.4,54.3,50.1,87,77,59,30.09,29.93,2,0,4,0.00
2013-9-24,77.5,65.5,58.8,62.8,58.0,55.0,88,78,54,30.09,29.94,5,0,5,0.00
2013-9-25,64.6,61.8,58.8,60.3,57.7,55.0,88,86,83,29.96,29.88,1,0,1,0.17
2013-9-26,73.9,63.1,56.5,60.2,55.7,51.1,89,78,48,30.06,29.90,6,0,6,0.04
2013-9-27,75.4,62.2,52.3,59.7,54.1,48.3,87,76,56,30.19,30.06,3,0,6,0.00
2013-9-28,71.8,62.1,56.5,57.6,54.1,50.1,85,75,58,30.26,30.16,4,0,5,0.00
2013-9-29,72.3,61.7,55.0,58.7,53.8,49.8,85,76,60,30.19,30.04,2,0,3,0.00
2013-9-30,75.9,64.2,57.0,60.6,56.3,52.2,86,76,55,30.10,30.00,3,0,5,0.00
2013-10-1,79.0,64.8,55.2,62.4,56.5,51.0,88,75,50,30.15,30.04,3,0,10,0.00
2013-10-2,80.4,65.8,55.8,63.6,57.4,51.3,88,75,50,30.17,30.07,5,0,6,0.00
2013-10-3,78.6,66.5,58.8,66.2,59.5,54.7,87,79,62,30.15,30.07,4,0,5,0.00
2013-10-4,82.6,67.2,58.6,66.7,59.8,54.5,89,78,52,30.16,30.08,2,0,3,0.00
2013-10-5,83.1,68.8,59.9,67.0,61.0,56.0,88,77,53,30.15,30.05,3,0,4,0.00
2013-10-6,79.2,67.4,58.8,66.8,60.5,54.7,89,79,60,30.06,29.90,2,0,7,0.00
2013-10-7,71.2,64.6,54.0,64.9,58.9,48.9,91,82,66,30.02,29.82,5,0,7,1.38
2013-10-8,68.5,56.9,49.6,53.4,48.9,45.3,86,75,55,30.23,30.02,2,0,7,0.02
2013-10-9,70.9,56.0,45.3,49.4,45.4,40.7,85,70,41,30.24,30.11,4,0,7,0.00
2013-10-10,73.9,58.2,45.7,58.7,49.3,40.8,86,73,54,30.14,30.00,6,0,7,0.00
2013-10-11,79.3,64.6,56.3,58.0,53.3,50.6,83,68,44,30.02,29.92,7,0,11,0.00
2013-10-12,70.9,62.9,55.9,60.5,55.5,49.4,83,77,66,30.11,29.98,3,0,3,0.00
2013-10-13,73.4,65.1,61.3,63.9,59.4,57.4,88,82,68,30.22,30.10,2,0,4,0.11
2013-10-14,69.4,63.5,59.5,60.7,57.8,54.7,87,82,71,30.25,30.16,4,0,6,0.06
2013-10-15,72.1,61.6,56.5,58.0,54.2,51.3,86,77,57,30.22,30.06,4,0,8,0.04
2013-10-16,70.2,60.5,52.2,59.0,53.9,47.8,87,79,64,30.09,29.96,4,0,5,0.00
2013-10-17,69.6,62.4,58.8,63.9,58.2,54.7,89,86,77,29.97,29.84,3,0,3,0.15
2013-10-18,69.3,58.7,49.3,57.1,52.5,45.3,89,80,65,30.04,29.91,2,0,114,0.04
2013-10-19,62.8,57.7,51.6,57.2,53.1,47.0,88,85,78,29.97,29.85,2,0,2,0.02
2013-10-20,64.8,52.1,43.9,47.9,43.4,38.6,84,73,51,30.09,29.94,2,0,5,0.02
2013-10-21,66.7,51.9,40.8,52.9,44.9,36.1,86,77,57,30.14,29.99,2,0,6,0.00
2013-10-22,66.2,57.5,52.2,56.4,51.0,47.3,88,79,67,30.00,29.80,0,0,5,0.00
2013-10-23,61.0,51.0,39.0,49.8,38.9,29.8,85,65,41,30.03,29.74,13,2,23,0.00
2013-10-24,56.8,44.6,33.6,37.9,33.0,27.5,80,65,47,30.14,30.01,8,0,12,0.00
2013-10-25,51.3,41.0,33.3,34.6,29.7,25.7,80,65,45,30.35,30.14,9,0,11,0.00
2013-10-26,56.8,41.3,28.2,36.7,30.0,22.6,81,66,42,30.34,30.04,4,0,7,0.00
2013-10-27,67.3,52.5,39.9,47.9,41.7,34.6,83,68,46,30.10,30.02,3,0,7,0.00
2013-10-28,63.1,54.4,48.0,55.5,48.8,42.9,86,81,75,30.24,30.09,2,0,2,0.00
2013-10-29,68.5,56.2,46.2,55.9,49.0,42.3,88,78,59,30.32,30.22,1,0,4,0.00
2013-10-30,75.9,61.8,53.4,57.5,52.8,48.7,86,73,49,30.27,30.13,4,0,7,0.00
2013-10-31,67.8,60.3,53.2,59.0,53.4,48.7,87,78,61,30.17,29.87,5,0,6,0.00
2013-11-1,70.9,64.5,55.6,62.1,57.5,51.3,87,78,67,29.87,29.66,14,0,14,0.06
2013-11-2,66.6,54.2,45.7,51.6,41.9,35.4,87,65,42,29.98,29.73,15,1,17,0.02
2013-11-3,61.0,49.0,40.6,39.1,35.3,32.1,77,60,41,30.34,29.98,9,0,11,0.00
2013-11-4,57.7,44.2,33.8,35.3,31.6,28.3,82,63,38,30.50,30.34,4,0,6,0.00
2013-11-5,57.7,45.8,35.2,45.1,36.0,28.5,82,69,52,30.54,30.40,6,0,6,0.02
2013-11-6,63.3,54.0,48.0,52.4,47.6,43.7,86,80,66,30.41,30.12,4,0,5,0.02
2013-11-7,69.3,51.0,39.4,56.3,41.7,30.8,88,72,48,30.14,29.98,10,1,18,0.00
2013-11-8,56.8,42.9,32.5,31.2,27.8,25.3,77,57,30,30.28,30.14,14,0,14,0.00
2013-11-9,58.6,41.7,29.1,33.8,29.0,23.1,79,62,38,30.33,30.16,5,0,6,0.00
2013-11-10,67.8,49.5,34.3,41.0,32.8,27.1,81,56,28,30.23,30.10,11,1,19,0.00
2013-11-11,59.7,44.5,30.7,33.2,27.8,22.6,74,53,33,30.33,30.11,3,0,5,0.00
2013-11-12,60.4,42.8,29.3,38.4,27.7,14.7,74,56,41,30.42,30.02,16,2,19,0.00
2013-11-13,48.4,34.0,23.7,20.9,17.4,14.2,71,52,31,30.48,30.39,6,0,9,0.00
2013-11-14,57.6,38.0,23.4,30.3,21.9,16.3,76,55,30,30.42,30.26,4,0,6,0.00
2013-11-15,56.3,42.8,29.1,40.8,29.4,19.8,81,61,41,30.30,30.17,3,0,5,0.02
2013-11-16,56.7,50.8,46.0,50.1,45.6,40.5,85,82,77,30.26,30.18,0,0,1,0.02
2013-11-17,64.6,56.0,52.0,56.8,51.5,47.6,89,85,73,30.20,29.87,3,0,5,0.35
2013-11-18,67.8,57.1,46.2,55.0,43.6,30.0,90,64,33,30.01,29.83,13,1,18,0.02
2013-11-19,54.3,45.8,37.9,30.8,27.5,23.9,64,49,34,30.24,30.00,8,1,8,0.00
2013-11-20,50.4,39.9,31.8,31.9,28.7,25.1,77,65,46,30.43,30.24,5,0,8,0.00
2013-11-21,53.2,46.1,37.0,43.4,37.4,29.9,84,71,66,30.46,30.35,2,0,2,0.00
2013-11-22,62.1,54.3,48.0,54.4,49.0,43.4,87,82,74,30.38,30.09,2,0,4,0.04
2013-11-23,57.9,51.0,38.5,51.4,39.3,20.8,89,66,40,30.20,30.07,16,2,22,0.02
2013-11-24,39.9,32.4,24.8,22.4,12.8,8.3,59,45,29,30.45,30.20,12,2,15,0.00
2013-11-25,39.0,30.9,21.0,23.4,14.8,11.5,69,52,36,30.48,30.28,3,0,4,0.00
2013-11-26,41.5,36.3,32.7,37.7,30.8,23.1,86,80,64,30.28,29.62,4,0,4,2.23
2013-11-27,42.3,36.4,25.9,38.7,26.7,14.9,87,69,51,30.14,29.54,18,3,26,0.13
2013-11-28,44.2,30.7,21.2,23.6,19.0,0.0,77,62,42,30.41,30.15,5,0,14,0.04
2013-11-29,51.8,34.7,23.7,28.8,23.3,18.2,81,65,39,30.55,30.40,4,0,6,0.00
2013-11-30,44.1,32.7,26.2,26.3,22.7,20.3,79,67,47,30.59,30.33,4,0,14,0.00
2013-12-1,55.2,36.9,24.4,35.7,27.1,18.9,81,69,47,30.33,30.00,4,0,4,0.00
2013-12-2,56.1,42.6,29.8,38.2,32.3,24.7,83,68,49,30.00,29.80,3,0,5,0.00
2013-12-3,59.5,49.9,41.9,48.2,41.8,33.7,81,74,64,29.95,29.85,4,0,6,0.00
2013-12-4,56.5,53.4,50.5,52.0,49.4,46.0,89,86,81,30.06,29.94,2,0,2,0.00
2013-12-5,64.8,58.8,52.9,61.4,55.4,49.7,91,88,84,30.09,29.98,5,0,5,0.35
2013-12-6,72.1,67.2,58.8,63.0,60.8,54.5,91,80,72,30.03,29.93,11,2,17,0.58
2013-12-7,58.8,53.0,42.4,55.1,45.6,34.9,89,76,64,30.38,29.97,6,1,7,0.09
2013-12-8,42.4,37.0,34.3,35.4,32.2,30.0,85,83,76,30.38,30.21,4,0,4,0.15
2013-12-9,45.0,39.7,34.5,40.4,35.8,30.4,87,86,84,30.23,30.01,5,0,5,0.54
2013-12-10,51.3,41.9,29.3,45.7,34.6,22.2,89,76,50,30.27,29.89,10,1,20,0.22
2013-12-11,49.5,35.6,24.6,28.3,23.2,18.8,80,62,38,30.39,30.24,4,0,7,0.02
2013-12-12,44.4,34.9,27.0,22.6,18.5,12.7,67,52,30,30.36,30.24,6,0,9,0.00
2013-12-13,49.8,34.4,22.6,28.0,21.6,15.9,77,61,38,30.32,30.20,2,0,4,0.00
2013-12-14,38.7,37.3,35.4,34.4,31.3,27.6,86,79,68,30.23,29.77,6,0,6,0.84
2013-12-15,47.1,38.6,31.3,37.0,30.8,24.1,87,74,55,30.06,29.72,9,0,16,0.02
2013-12-16,55.9,42.8,31.8,33.5,29.1,24.5,76,60,41,30.12,30.03,6,1,9,0.00
2013-12-17,60.4,45.3,30.4,37.0,30.9,23.2,81,59,39,30.09,29.87,19,2,26,0.00
2013-12-18,49.1,38.6,31.3,23.3,18.6,16.4,60,45,28,30.24,30.04,8,0,13,0.00
2013-12-19,59.4,40.8,26.8,34.5,24.9,18.7,75,55,37,30.26,30.15,6,0,8,0.00
2013-12-20,58.8,45.9,34.0,39.9,33.4,25.9,77,62,47,30.20,30.09,4,0,7,0.00
2013-12-21,61.9,51.3,41.9,58.6,46.2,36.5,90,82,75,30.12,29.98,10,0,10,0.00
2013-12-22,64.6,60.2,56.8,60.4,56.8,53.9,91,88,85,30.06,29.95,10,1,10,2.42
2013-12-23,58.8,53.2,39.7,55.4,48.1,33.1,92,83,66,30.17,29.97,9,0,14,0.71
2013-12-24,41.7,34.7,25.9,34.1,24.4,16.6,84,67,47,30.39,30.15,14,1,19,0.02
2013-12-25,38.8,27.9,20.3,18.4,16.0,13.4,76,62,37,30.48,30.31,5,0,5,0.00
2013-12-26,51.1,32.8,21.4,29.8,21.2,15.3,79,64,38,30.32,30.19,6,0,14,0.00
2013-12-27,48.9,34.5,24.6,28.5,23.5,19.0,81,66,41,30.43,30.31,6,0,7,0.00
2013-12-28,50.2,36.8,25.0,36.8,28.4,19.4,84,73,48,30.36,30.11,4,0,6,0.22
2013-12-29,55.9,44.2,39.4,46.5,37.9,33.0,87,79,62,30.11,29.75,18,1,20,0.76
2013-12-30,52.2,43.9,36.3,39.2,35.5,30.6,82,72,59,30.10,29.93,6,0,10,0.02
2013-12-31,48.2,38.4,30.0,35.5,25.4,20.2,79,61,37,30.32,30.08,11,1,18,0.00
2014-1-1,48.7,35.7,27.3,30.5,25.3,20.6,78,67,47,30.34,30.10,3,0,6,0.00
2014-1-2,39.6,35.4,28.6,35.7,29.3,16.9,86,78,58,30.10,29.64,10,1,17,0.17